Tracking 19854 objects as of 22-Sep-2019
HD Live streaming from Space Station
objects crossing your sky now

FENGYUN 1C DEB

Track FENGYUN 1C DEB now!
10-day predictions


NORAD ID: 31988
Int'l Code: 1999-025CPR
Perigee: 829.7 km
Apogee: 940.5 km
Inclination: 98.1 °
Period: 102.5 minutes
Semi major axis: 7256 km
RCS: 0.0166 m2 (small)
Launch date: May 10, 1999
Source: People's Republic of China (PRC)
Launch site: Taiyaun Space Center, China (TSC)

Note: This is SATELLITE DEBRIS
aabbcc
Your satellite tracking list
Your tracking list is empty




NASA's NSSDC Master Catalog

Two Line Element Set (TLE):
1 31988U 99025CPR 19264.94774772  .00000667  00000-0  42957-3 0  9992
2 31988  98.1402 163.6170 0076330 354.5498   5.4833 14.04591987626551
Source of the keplerian elements: AFSPC